Lapse_Rate
6.6 6.5 6.8 7.0 6.6 5.9 5.5 5.1 5.5 5.2 5.1 4.9 5.0 5.0 5.5 5.9 6.1 6.0 5.6 5.4 5.4 5.3 5.4 5.5 5.2 5.1 5.3 5.5 5.4 5.6 5.6 5.7 5.8 5.8 5.8 5.8 5.8 5.8 5.7 5.7 5.7 5.6 5.6 5.5 5.6 5.6 5.6 5.7 5.7
6.9 6.9 7.0 6.8 6.6 6.4 5.7 5.5 5.7 5.4 5.5 5.3 5.3 5.5 5.5 5.7 6.1 6.2 5.9 5.4 5.4 5.6 5.6 5.5 5.3 5.3 5.6 5.6 5.6 5.8 5.7 5.8 5.9 5.9 5.8 5.8 6.0 5.9 5.9 5.9 5.8 5.8 5.7 5.6 5.7 5.7 5.9 5.8 5.8
7.0 6.8 6.9 6.5 6.4 6.3 5.8 5.7 5.7 5.5 5.7 5.6 5.7 5.7 5.7 5.8 5.9 6.2 6.1 5.9 5.8 5.7 5.5 5.3 5.4 5.5 5.7 5.8 5.9 5.8 5.9 5.9 6.1 6.0 6.0 6.1 6.0 6.0 6.0 5.9 5.9 5.8 5.8 5.8 5.9 5.9 5.9 5.8 6.0
7.0 6.7 6.7 6.6 6.2 6.1 6.1 5.9 5.7 5.8 5.9 5.7 5.7 5.6 5.8 5.6 5.8 6.0 6.2 6.2 6.0 5.7 5.6 5.5 5.5 5.6 5.7 5.9 5.8 5.9 6.0 6.0 6.0 6.1 6.2 6.1 6.1 6.1 6.1 6.0 5.9 5.8 5.9 5.9 5.9 6.0 6.1 6.1 6.1
6.8 6.8 6.6 6.5 6.2 6.1 6.3 6.0 5.7 5.8 5.8 5.5 5.5 5.5 5.5 5.6 5.5 5.7 6.0 6.0 5.9 5.7 5.7 5.6 5.6 5.7 5.7 5.9 6.0 5.8 5.9 6.0 6.1 6.2 6.1 6.1 6.1 6.1 6.2 6.1 6.1 6.0 6.1 6.2 6.2 6.1 6.1 6.1 6.2
6.9 6.9 6.5 6.2 6.2 5.9 5.8 5.8 5.6 5.5 5.3 5.6 5.5 5.9 5.7 5.6 5.6 5.6 5.9 6.0 5.9 5.7 5.6 5.6 5.6 5.7 5.7 5.9 6.1 6.1 6.0 6.1 6.1 6.1 6.1 6.2 6.2 6.3 6.4 6.3 6.3 6.2 6.3 6.3 6.3 6.2 6.1 6.1 6.0
6.8 6.8 6.4 6.2 6.2 6.1 6.0 6.0 5.9 5.7 5.9 6.1 6.0 6.1 6.5 6.1 5.7 5.6 5.9 5.9 5.8 5.7 5.6 5.6 5.6 5.7 5.7 5.8 6.2 6.1 6.1 6.1 6.1 6.0 6.2 6.3 6.3 6.4 6.5 6.5 6.5 6.4 6.3 6.2 6.2 6.2 6.1 6.0 6.0
6.5 6.6 6.5 6.2 6.1 5.9 5.6 5.5 5.4 5.4 5.7 5.8 5.8 6.0 6.5 6.7 6.2 5.9 5.9 5.8 5.8 5.8 5.7 5.6 5.6 5.6 5.7 5.8 6.1 6.2 6.1 6.1 6.2 6.1 6.3 6.4 6.4 6.6 6.6 6.6 6.6 6.5 6.4 6.3 6.2 6.1 6.2 6.2 6.3
6.2 6.5 6.6 6.4 6.3 6.1 5.7 5.7 5.6 5.7 5.8 5.5 5.6 5.7 5.8 6.3 6.3 6.1 6.1 6.0 5.9 5.8 5.8 5.8 5.5 5.7 5.7 5.9 6.1 6.1 6.1 6.1 6.2 6.1 6.2 6.4 6.6 6.7 6.6 6.6 6.6 6.5 6.5 6.5 6.3 6.3 6.3 6.4 6.5
6.2 6.4 6.4 6.5 6.4 6.3 5.9 5.4 5.5 5.5 5.5 5.6 5.7 5.9 6.0 6.1 6.2 6.1 6.0 5.9 5.9 5.9 5.9 6.0 5.8 5.7 5.7 5.9 6.0 6.0 5.8 6.1 6.2 6.1 6.1 6.5 6.7 6.9 6.7 6.6 6.6 6.5 6.6 6.5 6.5 6.6 6.7 6.7 6.6
6.5 6.5 6.5 6.5 6.3 6.2 5.9 5.4 5.2 5.2 5.2 5.5 5.7 6.0 6.1 6.2 6.2 5.9 5.8 5.9 5.8 5.8 5.9 6.0 5.8 5.7 5.8 5.7 5.9 5.9 5.9 6.1 6.1 6.1 6.2 6.5 6.7 6.8 6.6 6.6 6.5 6.6 6.5 6.5 6.6 6.7 6.9 6.8 6.8
6.3 6.3 6.4 6.4 6.3 6.4 5.9 5.7 5.5 5.4 5.6 5.2 5.3 5.5 5.9 6.1 6.1 6.1 5.8 5.6 5.6 5.7 5.6 5.8 5.9 6.0 5.8 5.8 5.8 5.9 5.9 6.0 6.2 6.1 6.1 6.3 6.5 6.6 6.6 6.6 6.7 6.7 6.7 6.7 6.7 6.8 6.9 7.0 7.0
6.3 6.3 6.3 6.2 6.0 5.9 5.8 5.6 5.7 5.7 5.9 5.6 5.4 5.3 5.6 5.7 5.8 5.9 5.7 5.6 5.6 5.5 5.2 5.7 5.7 5.8 5.7 5.6 5.7 5.9 5.8 6.0 6.1 6.1 6.2 6.1 6.2 6.4 6.6 6.7 6.8 6.8 6.9 6.9 6.9 6.9 7.0 7.1 7.1
6.7 6.6 6.5 6.3 6.2 6.1 5.9 5.9 5.6 5.5 5.6 5.5 5.4 5.4 5.4 5.4 5.6 5.7 5.8 5.7 5.7 5.5 5.4 5.2 5.2 5.5 5.4 5.5 5.7 5.8 5.8 5.9 6.0 6.0 6.0 6.1 6.2 6.3 6.5 6.6 6.7 6.8 6.9 7.0 7.0 7.1 7.2 7.3 7.2
6.6 6.7 6.4 6.3 6.3 6.3 6.1 5.9 5.7 5.6 5.5 5.5 5.3 5.3 5.3 5.4 5.5 5.3 5.3 5.6 5.4 5.6 5.5 5.3 5.2 5.1 5.2 5.2 5.4 5.6 5.7 5.7 5.7 5.9 6.0 6.0 6.2 6.3 6.4 6.4 6.6 6.8 6.9 7.0 7.0 7.2 7.2 7.2 7.2
6.3 6.3 6.3 6.6 6.4 6.2 6.0 6.0 5.9 5.6 5.5 5.3 5.2 5.3 5.3 5.2 5.2 5.2 5.1 5.4 5.5 5.3 5.5 5.6 5.2 5.1 5.2 5.1 5.2 5.3 5.4 5.5 5.6 5.6 5.7 6.1 6.3 6.4 6.4 6.6 6.6 6.7 6.9 7.0 7.0 7.2 7.2 7.2 7.4
6.3 6.1 6.0 6.2 6.3 6.0 5.9 6.0 6.1 5.9 5.4 5.2 5.2 5.1 5.0 5.1 5.2 5.2 5.1 5.0 5.0 5.2 5.2 5.3 5.3 5.2 5.1 5.2 5.3 5.4 5.4 5.4 5.4 5.6 5.6 5.9 6.0 6.3 6.4 6.5 6.6 6.7 6.7 6.8 6.9 7.1 7.2 7.2 7.4
6.6 6.5 6.3 6.4 6.7 6.7 6.6 6.5 6.4 6.2 5.9 5.6 5.3 5.1 5.0 5.0 5.0 5.1 5.2 5.0 4.9 4.9 5.1 5.2 5.2 5.2 5.3 5.1 5.1 5.2 5.3 5.3 5.3 5.5 5.5 5.5 5.8 6.0 6.3 6.4 6.7 6.8 6.9 6.9 6.8 7.0 7.3 7.4 7.4
7.1 6.9 6.8 7.0 6.7 6.7 6.7 6.8 6.6 6.3 6.0 5.7 5.4 5.2 4.9 4.9 4.9 4.9 5.0 4.9 4.9 5.0 4.9 5.0 5.0 5.3 5.3 5.3 5.2 5.0 5.1 5.4 5.5 5.5 5.5 5.6 5.5 5.8 6.0 6.4 6.5 6.6 6.9 7.0 6.8 6.8 7.0 7.2 7.4
7.7 7.5 7.5 7.5 7.0 6.8 6.9 6.8 6.8 6.7 6.5 6.1 5.9 5.5 5.2 4.9 5.0 5.1 5.1 5.1 5.0 4.9 4.9 5.0 5.0 5.0 5.2 5.4 5.3 5.5 5.6 5.5 5.5 5.6 5.6 5.6 5.5 5.5 5.7 5.9 6.2 6.5 6.8 7.0 7.0 7.0 7.0 7.0 7.1
7.9 8.0 8.0 7.8 7.6 7.2 7.3 7.3 7.3 7.2 7.2 6.8 6.5 5.9 5.7 5.7 5.7 5.5 5.2 5.0 4.9 5.0 5.0 5.0 4.9 4.9 4.9 5.3 5.4 5.4 5.5 5.5 5.3 5.2 5.1 5.1 5.2 5.5 5.6 5.7 5.7 6.0 6.3 6.4 6.6 6.9 7.2 7.2 7.1
8.2 8.1 8.1 8.1 7.9 7.9 7.5 8.3 7.6 7.3 7.1 7.2 6.8 6.7 6.3 6.0 5.9 5.6 5.4 5.3 5.1 5.1 5.0 4.9 4.8 4.9 4.9 5.0 5.1 5.4 5.3 5.2 5.2 5.3 5.3 5.2 5.2 5.3 5.6 5.8 5.9 5.8 5.8 6.0 6.1 6.4 6.7 7.0 7.0
8.0 8.0 8.1 7.8 7.7 7.7 7.5 7.7 7.3 7.8 7.6 6.8 6.4 6.2 6.4 6.1 6.1 5.9 5.8 5.8 5.5 5.4 5.3 5.3 5.2 5.0 5.1 5.1 5.2 5.2 5.2 5.5 5.7 5.8 5.9 5.8 5.5 5.3 5.2 5.3 5.5 5.8 5.9 5.8 5.8 6.0 6.3 6.6 6.7
7.8 8.0 7.8 7.7 7.8 7.8 7.2 7.3 7.2 7.2 7.6 7.6 7.1 6.0 6.3 6.3 5.9 6.1 6.1 5.9 5.9 5.6 5.5 5.4 5.3 5.3 5.2 5.2 5.0 5.1 5.2 5.4 5.8 5.8 6.1 6.3 6.4 6.4 6.3 5.9 5.8 5.7 5.7 5.7 5.8 5.7 5.9 6.0 6.3
7.4 7.8 8.1 7.9 7.7 7.8 6.6 6.6 5.9 6.3 6.7 7.1 7.3 6.9 6.2 6.2 6.5 6.5 6.2 5.9 5.8 5.9 5.7 5.8 5.4 5.2 5.4 5.5 5.8 5.8 5.6 5.6 5.6 6.1 6.2 6.1 6.2 6.4 6.5 6.3 6.5 6.4 6.4 6.1 5.7 5.5 5.6 5.7 5.9
7.8 8.1 8.5 7.8 7.9 7.4 5.6 5.9 4.8 6.0 6.4 6.8 7.1 7.0 6.1 6.0 6.3 6.6 6.6 5.9 6.1 6.1 6.0 5.9 5.9 5.2 5.2 5.6 5.5 5.5 5.7 5.7 5.8 6.0 6.3 6.4 6.2 6.2 6.2 6.2 6.1 6.1 6.2 6.5 6.4 6.0 5.8 5.6 5.7
7.9 7.9 8.0 7.8 6.6 6.9 5.6 5.0 5.1 5.5 5.9 6.3 6.6 6.3 5.9 5.9 6.3 6.5 6.8 6.6 6.3 6.1 6.2 6.4 6.0 5.5 5.7 5.8 5.6 5.8 5.8 6.1 6.3 6.3 6.4 6.5 6.6 6.6 6.4 6.3 6.1 6.2 6.2 6.1 6.2 6.3 6.4 6.0 5.8
8.1 8.1 7.7 7.5 7.2 7.1 5.8 5.4 5.5 5.6 6.0 6.3 6.5 6.5 6.1 6.1 6.4 6.3 6.5 6.0 6.6 6.9 6.2 6.3 6.5 6.8 6.7 6.1 6.2 6.3 6.8 6.5 6.7 6.9 6.7 6.9 6.7 6.6 6.7 6.4 6.2 6.0 6.2 6.3 6.1 6.1 6.4 6.3 6.3
8.0 7.9 8.0 7.9 7.1 7.5 7.0 6.0 5.8 6.0 6.0 6.2 5.9 5.9 5.9 5.9 5.8 6.1 6.2 6.1 6.5 6.6 6.6 6.6 6.7 7.3 7.6 7.3 6.8 6.5 6.5 6.7 6.8 7.0 7.1 7.2 7.2 7.2 6.9 6.7 6.8 6.3 6.0 6.1 6.1 6.2 6.1 6.2 6.4
8.2 8.3 8.3 8.3 7.1 6.6 6.7 5.8 5.6 5.7 6.0 6.3 6.9 7.1 6.6 6.6 6.2 6.2 6.4 6.8 6.7 6.5 6.0 6.4 6.3 6.9 7.4 6.9 6.6 6.6 6.7 6.7 6.9 7.0 7.1 7.1 7.2 7.2 7.2 7.2 7.1 7.2 7.0 6.5 6.3 6.1 6.1 6.0 6.1
Wind_Speed
9 4 1 1 1 4 5 6 12 13 12 4 10 2 7 7 3 8 7 7 14 12 9 9 9 11 12 12 14 14 14 13 15 14 14 14 14 15 14 15 16 15 15 15 16 16 15 15 15
5 2 2 1 4 9 5 6 14 9 9 16 10 9 5 5 5 10 10 10 15 13 10 10 8 10 12 13 12 13 12 13 14 13 14 12 12 16 14 14 14 15 14 13 13 13 13 12 11
3 1 0 2 3 7 6 6 9 10 13 9 6 9 4 4 8 11 7 13 15 12 11 10 9 10 10 11 11 12 13 12 14 14 13 14 15 14 13 13 13 12 12 11 11 11 12 10 9
0 1 2 3 9 6 5 11 17 12 9 5 12 9 6 5 10 5 14 15 12 12 10 11 9 8 8 10 12 10 12 13 14 13 13 13 11 11 12 13 12 11 10 10 10 10 9 8 7
2 0 3 5 10 8 10 15 10 8 5 7 2 8 6 4 10 16 14 13 13 11 10 10 9 7 7 10 10 9 13 12 12 12 12 12 11 16 12 13 12 11 10 9 9 9 8 9 10
2 1 3 5 6 7 9 9 10 9 8 10 12 11 5 8 14 13 12 12 13 11 10 9 8 7 5 9 8 9 11 12 10 10 11 12 13 14 14 14 12 10 10 9 8 7 8 9 11
2 2 3 6 7 5 7 7 9 9 11 8 9 8 7 12 11 12 12 11 11 11 10 8 7 7 5 9 7 7 10 9 9 9 9 10 10 11 11 11 10 9 7 6 5 5 6 8 9
2 0 5 4 6 5 6 3 11 10 8 10 7 6 10 14 13 13 12 11 9 8 9 8 7 6 2 6 5 8 9 8 7 7 8 7 8 9 10 6 7 6 4 2 2 2 4 5 6
1 2 4 4 8 7 11 7 4 6 12 6 3 13 15 17 15 14 12 10 9 7 7 8 8 5 5 4 4 7 6 6 6 6 7 6 7 7 8 8 8 6 5 4 3 2 2 2 3
1 3 2 3 7 11 12 11 7 8 11 9 15 18 18 16 14 13 12 11 10 10 9 7 9 6 7 6 5 4 3 4 4 5 5 5 7 8 7 7 8 8 8 6 6 6 5 5 3
1 2 3 3 9 17 13 12 4 15 8 9 19 19 17 16 13 12 10 10 12 12 10 10 11 7 5 5 4 3 3 3 4 4 4 4 5 6 7 7 8 8 8 6 4 4 4 4 4
3 2 1 5 11 14 14 12 10 4 2 14 19 20 17 15 13 12 11 10 11 12 12 11 8 8 6 4 4 3 3 3 3 3 2 2 2 4 5 6 7 8 8 8 8 6 6 5 4
4 5 6 9 13 13 12 8 11 6 9 18 18 16 15 13 11 9 9 9 9 10 11 10 8 8 7 4 3 4 3 2 2 2 3 4 4 5 7 6 7 8 8 7 7 8 8 8 6
4 5 7 9 13 11 10 8 6 6 15 19 17 15 13 12 12 11 10 11 10 9 10 10 10 9 8 5 5 4 3 2 1 1 2 4 4 6 5 6 7 8 9 8 8 8 8 7 6
4 8 8 8 8 5 15 7 3 15 17 17 16 13 12 12 12 10 10 11 11 9 10 12 12 12 9 7 5 4 3 3 3 3 2 2 4 6 5 5 6 8 9 9 9 9 8 7 7
4 1 3 5 7 7 5 3 10 16 18 16 15 12 12 13 13 10 10 11 12 12 12 12 10 11 11 9 6 4 4 4 4 4 5 3 3 5 5 6 6 8 8 8 8 6 7 7 7
1 1 4 6 5 8 6 5 14 18 16 15 14 13 12 11 11 12 12 11 12 13 12 12 12 11 9 7 6 6 5 6 6 6 7 6 5 4 5 6 7 8 7 6 5 5 6 6 7
4 3 4 5 9 9 8 5 15 17 17 16 15 14 13 13 15 14 14 13 12 12 11 11 10 11 9 7 7 7 6 7 7 8 8 7 6 6 5 6 7 7 5 5 5 5 5 5 6
3 2 2 2 7 9 9 7 15 17 15 14 14 14 13 14 13 12 13 13 13 13 13 13 12 11 8 7 6 6 7 5 5 8 9 9 9 7 6 6 8 6 5 4 4 4 5 5 6
10 7 7 1 6 8 7 6 12 18 19 17 16 15 15 14 11 13 14 14 15 15 14 13 13 13 11 8 6 4 3 4 6 5 8 9 9 10 8 7 6 7 5 6 4 3 4 4 4
4 8 5 3 8 3 6 4 10 12 12 13 14 14 14 15 15 13 13 15 14 15 16 15 15 14 12 11 6 4 3 4 5 6 6 8 10 10 10 10 9 8 6 7 6 4 4 6 5
5 1 6 11 10 3 3 1 3 6 15 16 13 12 14 14 12 10 12 14 17 17 14 14 13 14 12 11 9 10 8 8 8 7 7 7 9 10 10 11 10 9 8 7 7 5 5 4 7
4 5 5 4 4 3 3 4 3 2 8 13 15 15 14 11 11 13 14 15 14 11 12 12 11 11 9 10 11 9 10 8 7 7 8 8 10 11 11 11 11 9 7 7 8 8 7 6 7
10 6 5 3 1 5 2 3 3 5 7 7 9 14 13 9 3 2 2 6 7 7 7 8 8 7 7 8 10 10 11 9 9 8 8 8 7 8 12 13 13 12 10 9 8 9 10 8 7
2 5 2 4 6 6 2 4 4 9 8 10 14 13 16 12 5 6 4 8 10 9 8 7 8 8 8 8 8 9 9 8 12 11 9 10 9 9 10 11 11 10 12 12 11 9 10 10 9
2 2 5 6 6 2 3 3 3 7 6 7 6 11 15 13 9 9 5 5 3 2 2 4 4 3 5 7 7 4 7 7 8 9 8 9 10 11 12 13 16 15 16 14 12 9 9 11 10
5 3 3 5 2 3 2 3 5 6 9 7 8 12 12 10 11 11 12 12 13 12 12 10 7 6 3 6 6 5 6 5 5 5 6 7 10 11 14 14 15 15 15 14 12 10 11 11 12
1 8 3 1 6 6 3 2 1 7 7 4 8 8 10 10 9 12 13 13 13 12 10 8 6 5 7 7 6 4 2 4 5 4 6 8 9 10 12 13 15 15 15 15 13 12 12 12 11
4 3 5 4 2 3 4 3 2 1 3 4 7 8 9 11 13 12 12 12 13 13 11 10 10 12 12 11 9 8 7 7 7 6 6 7 9 10 11 11 12 14 15 15 14 15 15 15 14
2 3 2 4 5 0 3 3 2 3 6 11 13 12 14 15 14 13 12 10 8 8 9 10 9 9 10 10 10 10 11 10 10 10 10 10 10 10 10 11 11 11 12 15 16 17 16 16 17
Wind_Direction
137 137 196 229 121 97 86 81 123 135 147 151 161 167 102 49 27 100 140 139 137 125 122 110 90 92 94 102 96 93 93 93 90 83 75 73 77 80 83 83 83 80 82 86 87 87 87 85 83
135 137 221 60 82 101 81 125 136 145 129 123 103 111 70 77 64 117 135 151 137 125 118 109 92 94 104 94 95 101 97 95 88 84 83 81 82 81 76 74 74 78 86 89 91 90 88 83 80
131 308 293 58 75 80 105 124 124 121 141 141 110 63 64 57 116 137 129 143 133 123 117 113 101 97 97 104 104 97 96 86 82 85 78 69 71 79 81 77 76 75 79 84 85 83 77 72 65
213 131 97 69 77 70 97 121 128 129 109 65 119 77 80 76 132 129 137 138 132 127 124 118 114 104 112 107 104 99 93 88 84 77 77 74 73 84 81 78 74 75 79 81 83 79 71 57 43
24 24 62 83 64 79 107 126 125 125 100 113 55 96 86 62 111 127 138 142 138 138 131 130 124 118 99 106 111 104 89 83 82 80 77 71 57 62 80 74 73 74 78 79 79 73 61 45 36
72 323 85 77 81 89 105 120 103 104 108 111 107 105 74 125 130 134 141 145 144 140 133 134 126 124 115 113 95 86 88 84 80 77 72 68 53 60 64 68 71 73 77 80 81 75 61 49 47
48 64 91 100 114 109 124 117 113 115 126 107 134 105 123 148 135 136 141 142 143 144 141 136 142 129 119 114 117 105 94 85 78 74 71 70 66 64 64 64 71 77 84 90 93 84 68 62 55
104 232 113 105 139 104 127 88 125 112 97 112 137 138 153 153 142 133 134 139 144 152 144 146 144 128 110 127 107 95 93 84 76 74 68 64 64 54 60 62 60 66 71 81 103 84 74 76 70
265 72 97 130 159 140 144 124 97 111 128 80 75 139 135 142 142 138 138 144 152 156 159 164 157 121 120 123 111 91 87 81 70 70 55 58 50 49 49 33 21 15 1 336 314 317 348 32 82
8 85 110 175 167 156 152 141 124 141 133 92 98 110 134 146 152 148 156 162 170 172 174 170 159 143 146 143 110 101 88 75 71 68 57 52 26 8 16 28 10 359 349 321 307 299 294 270 351
95 79 331 314 167 147 139 141 114 150 158 146 141 141 149 155 157 159 167 171 173 172 173 177 169 144 135 149 148 134 117 104 94 63 32 31 23 11 20 7 4 12 21 21 1 345 312 302 301
108 74 142 120 145 145 144 138 125 146 148 157 151 152 153 162 166 167 167 168 170 169 170 177 165 161 165 161 164 153 148 136 106 65 6 21 23 30 27 31 30 27 20 15 12 2 350 326 303
113 38 72 137 134 129 127 122 121 54 105 140 141 148 157 160 164 170 167 165 168 176 171 168 183 178 182 183 173 185 178 157 75 10 0 0 3 21 30 41 33 36 22 20 4 347 340 329 317
21 41 71 122 127 132 119 120 121 117 133 135 148 156 163 163 171 173 178 172 174 177 177 174 191 199 202 197 197 201 204 187 219 305 360 355 352 2 17 26 25 27 21 12 3 358 350 351 349
58 102 85 116 131 116 122 131 111 148 152 150 157 163 171 174 175 186 183 182 179 183 181 188 190 200 211 217 215 217 237 229 248 261 285 332 330 343 350 8 9 13 13 8 9 7 10 12 16
56 46 121 140 157 148 221 121 145 159 161 167 165 171 183 189 189 186 195 192 186 184 190 190 200 199 207 216 221 239 249 259 267 272 279 273 293 345 334 340 353 356 1 4 12 10 3 1 2
103 165 200 165 172 157 208 134 163 167 173 175 176 182 190 194 202 201 197 201 194 195 192 195 201 207 218 225 237 246 251 264 274 273 275 275 291 314 329 329 336 338 343 357 358 6 3 359 358
184 200 190 213 181 177 183 120 165 176 177 183 185 190 196 202 209 201 202 199 198 195 202 199 203 214 209 213 233 251 253 253 262 263 259 266 276 286 295 307 312 315 319 334 354 354 0 348 355
175 213 239 232 174 179 195 165 177 178 189 187 193 194 201 209 209 208 202 196 198 201 196 205 201 206 204 212 222 238 247 253 252 240 244 260 264 266 271 292 294 282 289 319 333 335 346 338 353
236 255 267 213 165 210 176 191 178 187 196 192 193 200 207 215 207 206 206 202 202 200 203 202 212 207 207 206 217 234 245 262 276 267 254 254 251 254 260 268 281 283 284 278 286 319 328 321 354
207 230 205 159 143 111 157 196 176 202 202 210 212 206 211 216 218 213 204 206 206 208 204 205 208 209 211 214 211 216 237 252 254 254 262 253 246 249 249 261 272 275 267 277 282 279 298 315 322
120 33 152 147 166 180 320 134 113 197 206 206 210 215 216 221 227 223 209 208 209 212 210 210 213 215 212 206 220 229 235 246 252 264 274 278 264 258 249 251 251 260 272 273 271 270 282 278 302
106 76 79 137 117 175 92 245 56 42 215 216 210 213 230 228 227 221 215 212 215 210 209 210 209 216 216 204 218 228 243 248 264 272 281 276 272 261 262 260 262 253 254 261 269 272 259 267 280
140 98 76 79 133 236 45 267 117 21 329 295 261 212 211 214 221 298 245 213 202 185 201 205 199 176 184 188 214 217 233 244 258 259 265 271 271 272 265 263 261 257 256 248 251 261 263 262 258
170 170 211 225 218 254 5 203 57 342 339 307 289 220 185 187 162 113 148 201 197 188 185 182 193 205 200 202 213 215 227 235 253 260 268 279 280 277 271 264 256 256 253 254 256 250 255 249 249
125 243 231 246 238 203 128 216 56 4 2 344 337 168 156 146 121 97 90 69 85 116 184 128 161 119 277 248 257 267 289 275 274 277 280 279 283 281 276 265 261 256 252 251 247 252 254 251 246
134 176 36 114 59 225 144 129 222 46 26 48 96 135 126 110 96 81 83 73 66 60 55 60 56 66 75 56 47 54 359 304 301 293 285 287 286 284 279 274 270 267 258 251 248 248 249 247 249
15 131 166 112 181 227 165 208 271 354 4 71 101 101 90 86 95 100 86 70 68 58 58 41 44 45 34 38 33 34 8 331 310 304 298 310 314 312 296 284 277 272 269 261 253 253 249 249 249
144 149 66 106 300 230 193 172 358 57 69 100 78 72 80 90 84 79 73 62 49 40 25 16 17 13 7 3 354 345 335 328 328 322 315 315 315 318 317 308 287 275 274 270 264 256 255 247 248
66 99 186 240 186 112 304 134 46 92 114 113 98 86 88 83 76 67 54 50 47 32 16 5 11 13 4 354 338 321 316 315 309 304 306 304 301 306 309 313 310 297 275 271 265 262 262 255 251